Time,TemperatureF,DewpointF,PressureIn,WindDirection,WindDirectionDegrees,WindSpeedMPH,WindSpeedGustMPH,Humidity,HourlyPrecipIn,Conditions,Clouds,dailyrainin,SoftwareType,DateUTC
2013-04-15 00:09:00,58.3,13.6,30.14,SE,139,6.0,9.0,17,0.00,CLR,,0.00,WeatherDisplay:10.37,2013-04-15 04:09:00,
2013-04-15 00:19:00,58.3,16.1,30.14,SE,134,7.0,10.0,19,0.00,CLR,,0.00,WeatherDisplay:10.37,2013-04-15 04:19:00,
2013-04-15 00:29:00,58.1,16.0,30.14,SE,125,6.0,9.0,19,0.00,CLR,,0.00,WeatherDisplay:10.37,2013-04-15 04:29:00,
2013-04-15 00:39:00,57.9,15.8,30.14,SE,140,3.0,8.0,19,0.00,CLR,,0.00,WeatherDisplay:10.37,2013-04-15 04:39:00,
2013-04-15 00:49:00,57.3,18.7,30.14,SE,140,5.0,9.0,22,0.00,CLR,,0.00,WeatherDisplay:10.37,2013-04-15 04:49:00,
2013-04-15 00:59:00,56.8,18.3,30.14,SSE,157,5.0,11.0,22,0.00,CLR,,0.00,WeatherDisplay:10.37,2013-04-15 04:59:00,
2013-04-15 01:09:00,56.7,21.2,30.14,SSE,166,0.0,8.0,25,0.00,CLR,,0.00,WeatherDisplay:10.37,2013-04-15 05:09:00,
2013-04-15 01:19:00,56.5,21.0,30.14,SE,138,3.0,8.0,25,0.00,CLR,,0.00,WeatherDisplay:10.37,2013-04-15 05:19:00,
2013-04-15 01:29:00,56.7,21.2,30.14,SSW,203,1.0,6.0,25,0.00,CLR,,0.00,WeatherDisplay:10.37,2013-04-15 05:29:00,
2013-04-15 01:39:00,56.7,22.1,30.14,SSE,148,2.0,6.0,26,0.00,CLR,,0.00,WeatherDisplay:10.37,2013-04-15 05:39:00,
2013-04-15 01:49:00,56.8,22.3,30.14,SSW,212,3.0,6.0,26,0.00,CLR,,0.00,WeatherDisplay:10.37,2013-04-15 05:49:00,
2013-04-15 01:59:00,56.7,22.1,30.14,ESE,113,2.0,4.0,26,0.00,CLR,,0.00,WeatherDisplay:10.37,2013-04-15 05:59:00,
2013-04-15 02:09:00,56.3,22.7,30.14,ENE,71,3.0,4.0,27,0.00,CLR,,0.00,WeatherDisplay:10.37,2013-04-15 06:09:00,
2013-04-15 02:19:00,56.1,22.6,30.14,ESE,106,3.0,6.0,27,0.00,CLR,,0.00,WeatherDisplay:10.37,2013-04-15 06:19:00,
2013-04-15 02:29:00,56.2,23.5,30.14,SE,127,5.0,6.0,28,0.00,CLR,,0.00,WeatherDisplay:10.37,2013-04-15 06:29:00,
2013-04-15 02:39:00,56.5,24.6,30.14,ESE,122,6.0,8.0,29,0.00,CLR,,0.00,WeatherDisplay:10.37,2013-04-15 06:39:00,
2013-04-15 02:49:00,56.5,24.6,30.14,SE,129,3.0,8.0,29,0.00,CLR,,0.00,WeatherDisplay:10.37,2013-04-15 06:49:00,
2013-04-15 02:59:00,56.5,24.6,30.14,SE,135,3.0,8.0,29,0.00,CLR,,0.00,WeatherDisplay:10.37,2013-04-15 06:59:00,
2013-04-15 03:49:00,56.1,25.1,30.17,SE,127,7.0,12.0,30,0.00,CLR,,0.00,WeatherDisplay:10.37,2013-04-15 07:49:00,
2013-04-15 03:59:00,56.1,25.1,30.17,SE,133,6.0,11.0,30,0.00,CLR,,0.00,WeatherDisplay:10.37,2013-04-15 07:59:00,
2013-04-15 04:09:00,55.9,26.5,30.17,SE,140,6.0,9.0,32,0.00,CLR,,0.00,WeatherDisplay:10.37,2013-04-15 08:09:00,
2013-04-15 04:19:00,55.8,27.1,30.17,SE,143,5.0,10.0,33,0.00,CLR,,0.00,WeatherDisplay:10.37,2013-04-15 08:19:00,
2013-04-15 04:29:00,55.4,28.2,30.20,SE,136,7.0,8.0,35,0.00,CLR,,0.00,WeatherDisplay:10.37,2013-04-15 08:29:00,
2013-04-15 04:49:00,54.9,28.4,30.17,SE,129,5.0,12.0,36,0.00,CLR,,0.00,WeatherDisplay:10.37,2013-04-15 08:49:00,
2013-04-15 04:59:00,54.9,28.4,30.17,ESE,117,6.0,12.0,36,0.00,CLR,,0.00,WeatherDisplay:10.37,2013-04-15 08:59:00,
2013-04-15 05:09:00,55.0,28.5,30.17,SE,137,10.0,13.0,36,0.00,CLR,,0.00,WeatherDisplay:10.37,2013-04-15 09:09:00,
2013-04-15 05:19:00,55.0,28.5,30.17,SE,127,9.0,15.0,36,0.00,CLR,,0.00,WeatherDisplay:10.37,2013-04-15 09:19:00,
2013-04-15 05:29:00,54.9,29.1,30.17,ESE,116,7.0,14.0,37,0.00,CLR,,0.00,WeatherDisplay:10.37,2013-04-15 09:29:00,
2013-04-15 05:39:00,54.7,28.9,30.17,SE,124,9.0,14.0,37,0.00,CLR,,0.00,WeatherDisplay:10.37,2013-04-15 09:39:00,
2013-04-15 05:49:00,54.5,29.4,30.17,SE,125,7.0,13.0,38,0.00,CLR,,0.00,WeatherDisplay:10.37,2013-04-15 09:49:00,
2013-04-15 05:59:00,54.3,29.9,30.17,ESE,118,7.0,12.0,39,0.00,CLR,,0.00,WeatherDisplay:10.37,2013-04-15 09:59:00,
2013-04-15 06:09:00,54.3,29.9,30.20,SE,124,8.0,13.0,39,0.00,CLR,,0.00,WeatherDisplay:10.37,2013-04-15 10:09:00,
2013-04-15 06:19:00,54.3,29.9,30.20,ESE,119,8.0,13.0,39,0.00,CLR,,0.00,WeatherDisplay:10.37,2013-04-15 10:19:00,
2013-04-15 06:29:00,54.4,29.9,30.20,ESE,118,8.0,13.0,39,0.00,CLR,,0.00,WeatherDisplay:10.37,2013-04-15 10:29:00,
2013-04-15 06:39:00,54.3,29.9,30.20,ESE,116,8.0,13.0,39,0.00,CLR,,0.00,WeatherDisplay:10.37,2013-04-15 10:39:00,
2013-04-15 06:49:00,54.2,30.4,30.20,ESE,120,9.0,14.0,40,0.00,CLR,,0.00,WeatherDisplay:10.37,2013-04-15 10:49:00,
2013-04-15 06:59:00,54.3,30.5,30.20,SE,126,7.0,13.0,40,0.00,CLR,,0.00,WeatherDisplay:10.37,2013-04-15 10:59:00,
2013-04-15 07:09:00,54.3,31.1,30.20,SE,125,7.0,13.0,41,0.00,CLR,,0.00,WeatherDisplay:10.37,2013-04-15 11:09:00,
2013-04-15 07:19:00,54.0,32.0,30.20,ESE,118,6.0,10.0,43,0.00,CLR,,0.00,WeatherDisplay:10.37,2013-04-15 11:19:00,
2013-04-15 07:29:00,54.0,32.0,30.23,ESE,122,8.0,12.0,43,0.00,CLR,,0.00,WeatherDisplay:10.37,2013-04-15 11:29:00,
2013-04-15 07:39:00,54.1,33.2,30.23,ESE,123,7.0,11.0,45,0.00,CLR,,0.00,WeatherDisplay:10.37,2013-04-15 11:39:00,
2013-04-15 07:49:00,54.1,33.2,30.23,ESE,122,7.0,13.0,45,0.00,CLR,,0.00,WeatherDisplay:10.37,2013-04-15 11:49:00,
2013-04-15 08:09:00,54.1,33.2,30.23,ESE,117,6.0,11.0,45,0.00,CLR,,0.00,WeatherDisplay:10.37,2013-04-15 12:09:00,
2013-04-15 08:19:00,54.3,33.4,30.23,ESE,107,5.0,8.0,45,0.00,CLR,,0.00,WeatherDisplay:10.37,2013-04-15 12:19:00,
2013-04-15 08:29:00,54.5,34.1,30.23,SE,127,5.0,8.0,46,0.00,CLR,,0.00,WeatherDisplay:10.37,2013-04-15 12:29:00,
2013-04-15 08:39:00,54.7,34.3,30.23,ESE,110,6.0,10.0,46,0.00,CLR,,0.00,WeatherDisplay:10.37,2013-04-15 12:39:00,
2013-04-15 08:49:00,55.1,34.7,30.23,ESE,107,6.0,10.0,46,0.00,CLR,,0.00,WeatherDisplay:10.37,2013-04-15 12:49:00,
2013-04-15 08:59:00,56.1,34.5,30.23,ESE,122,6.0,12.0,44,0.00,CLR,,0.00,WeatherDisplay:10.37,2013-04-15 12:59:00,
2013-04-15 09:09:00,56.8,33.9,30.23,SE,126,6.0,9.0,42,0.00,CLR,,0.00,WeatherDisplay:10.37,2013-04-15 13:09:00,
2013-04-15 09:19:00,57.2,32.4,30.23,SE,126,6.0,9.0,39,0.00,CLR,,0.00,WeatherDisplay:10.37,2013-04-15 13:19:00,
2013-04-15 09:29:00,57.2,32.4,30.23,SE,130,7.0,10.0,39,0.00,CLR,,0.00,WeatherDisplay:10.37,2013-04-15 13:29:00,
2013-04-15 09:39:00,57.0,32.9,30.23,ESE,113,6.0,11.0,40,0.00,CLR,,0.00,WeatherDisplay:10.37,2013-04-15 13:39:00,
2013-04-15 09:49:00,57.2,34.3,30.23,ESE,108,6.0,13.0,42,0.00,CLR,,0.00,WeatherDisplay:10.37,2013-04-15 13:49:00,
2013-04-15 09:59:00,57.7,35.4,30.23,SE,127,7.0,12.0,43,0.00,CLR,,0.00,WeatherDisplay:10.37,2013-04-15 13:59:00,
2013-04-15 10:09:00,57.7,34.8,30.23,ESE,110,6.0,10.0,42,0.00,CLR,,0.00,WeatherDisplay:10.37,2013-04-15 14:09:00,
2013-04-15 10:19:00,57.7,34.2,30.23,ESE,113,8.0,12.0,41,0.00,CLR,,0.00,WeatherDisplay:10.37,2013-04-15 14:19:00,
2013-04-15 10:29:00,58.1,35.7,30.23,SE,129,6.0,11.0,43,0.00,CLR,,0.00,WeatherDisplay:10.37,2013-04-15 14:29:00,
2013-04-15 10:39:00,57.9,34.3,30.23,ESE,108,6.0,10.0,41,0.00,CLR,,0.00,WeatherDisplay:10.37,2013-04-15 14:39:00,
2013-04-15 10:49:00,58.2,36.4,30.23,ESE,109,5.0,9.0,44,0.00,CLR,,0.00,WeatherDisplay:10.37,2013-04-15 14:49:00,
2013-04-15 10:59:00,58.8,36.9,30.23,SE,130,5.0,9.0,44,0.00,CLR,,0.00,WeatherDisplay:10.37,2013-04-15 14:59:00,
2013-04-15 11:09:00,58.9,36.4,30.23,SE,132,8.0,12.0,43,0.00,CLR,,0.00,WeatherDisplay:10.37,2013-04-15 15:09:00,
2013-04-15 11:19:00,59.4,38.0,30.23,ESE,114,5.0,8.0,45,0.00,CLR,,0.00,WeatherDisplay:10.37,2013-04-15 15:19:00,
2013-04-15 11:29:00,59.2,37.3,30.23,ESE,110,6.0,9.0,44,0.00,CLR,,0.00,WeatherDisplay:10.37,2013-04-15 15:29:00,
2013-04-15 11:39:00,59.4,38.0,30.23,ESE,102,3.0,8.0,45,0.00,CLR,,0.00,WeatherDisplay:10.37,2013-04-15 15:39:00,
2013-04-15 11:49:00,59.9,38.5,30.23,ESE,122,6.0,11.0,45,0.00,CLR,,0.00,WeatherDisplay:10.37,2013-04-15 15:49:00,
2013-04-15 11:59:00,60.1,36.9,30.23,SE,138,9.0,13.0,42,0.00,CLR,,0.00,WeatherDisplay:10.37,2013-04-15 15:59:00,
2013-04-15 12:09:00,60.3,37.7,30.23,SE,142,7.0,11.0,43,0.00,CLR,,0.00,WeatherDisplay:10.37,2013-04-15 16:09:00,
2013-04-15 12:19:00,60.8,37.5,30.23,SE,143,7.0,11.0,42,0.00,CLR,,0.00,WeatherDisplay:10.37,2013-04-15 16:19:00,
2013-04-15 12:29:00,61.0,37.1,30.23,SSE,157,7.0,10.0,41,0.00,CLR,,0.00,WeatherDisplay:10.37,2013-04-15 16:29:00,
2013-04-15 12:39:00,61.7,35.8,30.23,SSE,161,3.0,13.0,38,0.00,CLR,,0.00,WeatherDisplay:10.37,2013-04-15 16:39:00,
2013-04-15 12:59:00,62.7,36.7,30.23,SE,138,7.0,13.0,38,0.00,CLR,,0.00,WeatherDisplay:10.37,2013-04-15 16:59:00,
2013-04-15 13:09:00,63.3,35.9,30.23,SE,141,8.0,13.0,36,0.00,CLR,,0.00,WeatherDisplay:10.37,2013-04-15 17:09:00,
2013-04-15 13:19:00,62.6,36.6,30.23,South,171,8.0,13.0,38,0.00,CLR,,0.00,WeatherDisplay:10.37,2013-04-15 17:19:00,
2013-04-15 13:29:00,62.2,36.3,30.23,ESE,122,7.0,12.0,38,0.00,CLR,,0.00,WeatherDisplay:10.37,2013-04-15 17:29:00,
2013-04-15 13:39:00,61.7,35.8,30.26,SE,144,6.0,15.0,38,0.00,CLR,,0.00,WeatherDisplay:10.37,2013-04-15 17:39:00,
2013-04-15 13:49:00,61.4,36.2,30.26,ESE,120,8.0,10.0,39,0.00,CLR,,0.00,WeatherDisplay:10.37,2013-04-15 17:49:00,
2013-04-15 13:59:00,61.6,35.7,30.23,SE,146,6.0,13.0,38,0.00,CLR,,0.00,WeatherDisplay:10.37,2013-04-15 17:59:00,
2013-04-15 14:09:00,63.2,36.5,30.23,SE,127,8.0,13.0,37,0.00,CLR,,0.00,WeatherDisplay:10.37,2013-04-15 18:09:00,
2013-04-15 14:19:00,64.2,36.0,30.23,SE,127,8.0,13.0,35,0.00,CLR,,0.00,WeatherDisplay:10.37,2013-04-15 18:19:00,
2013-04-15 14:29:00,63.7,36.2,30.23,ESE,110,7.0,13.0,36,0.00,CLR,,0.00,WeatherDisplay:10.37,2013-04-15 18:29:00,
2013-04-15 14:39:00,63.9,35.7,30.23,ESE,115,9.0,13.0,35,0.00,CLR,,0.00,WeatherDisplay:10.37,2013-04-15 18:39:00,
2013-04-15 14:49:00,63.3,35.2,30.23,ESE,123,8.0,13.0,35,0.00,CLR,,0.00,WeatherDisplay:10.37,2013-04-15 18:49:00,
2013-04-15 14:59:00,62.8,34.7,30.23,SE,142,6.0,12.0,35,0.00,CLR,,0.00,WeatherDisplay:10.37,2013-04-15 18:59:00,
2013-04-15 15:09:00,62.8,34.7,30.23,SE,130,8.0,13.0,35,0.00,CLR,,0.00,WeatherDisplay:10.37,2013-04-15 19:09:00,
2013-04-15 15:19:00,62.8,34.7,30.23,SE,126,7.0,12.0,35,0.00,CLR,,0.00,WeatherDisplay:10.37,2013-04-15 19:19:00,
2013-04-15 15:29:00,63.0,35.6,30.23,ESE,112,6.0,9.0,36,0.00,CLR,,0.00,WeatherDisplay:10.37,2013-04-15 19:29:00,
2013-04-15 15:39:00,62.8,34.7,30.23,SE,132,8.0,13.0,35,0.00,CLR,,0.00,WeatherDisplay:10.37,2013-04-15 19:39:00,
2013-04-15 15:59:00,62.4,35.1,30.23,SE,127,8.0,13.0,36,0.00,CLR,,0.00,WeatherDisplay:10.37,2013-04-15 19:59:00,
2013-04-15 16:09:00,62.6,34.6,30.23,ESE,113,8.0,13.0,35,0.00,CLR,,0.00,WeatherDisplay:10.37,2013-04-15 20:09:00,
2013-04-15 16:19:00,62.6,34.5,30.23,ESE,122,8.0,13.0,35,0.00,CLR,,0.00,WeatherDisplay:10.37,2013-04-15 20:19:00,
2013-04-15 16:29:00,62.2,34.2,30.23,SE,130,8.0,15.0,35,0.00,CLR,,0.00,WeatherDisplay:10.37,2013-04-15 20:29:00,
2013-04-15 16:39:00,62.1,33.3,30.23,SE,126,8.0,15.0,34,0.00,CLR,,0.00,WeatherDisplay:10.37,2013-04-15 20:39:00,
2013-04-15 16:49:00,61.9,33.2,30.23,SE,145,6.0,12.0,34,0.00,CLR,,0.00,WeatherDisplay:10.37,2013-04-15 20:49:00,
2013-04-15 16:59:00,61.5,32.9,30.23,SE,141,7.0,12.0,34,0.00,CLR,,0.00,WeatherDisplay:10.37,2013-04-15 20:59:00,
2013-04-15 17:09:00,61.3,32.0,30.23,SSE,147,9.0,13.0,33,0.00,CLR,,0.00,WeatherDisplay:10.37,2013-04-15 21:09:00,
2013-04-15 17:19:00,61.3,32.7,30.23,SE,130,6.0,12.0,34,0.00,CLR,,0.00,WeatherDisplay:10.37,2013-04-15 21:19:00,
2013-04-15 17:29:00,61.0,33.1,30.23,SE,133,3.0,12.0,35,0.00,CLR,,0.00,WeatherDisplay:10.37,2013-04-15 21:29:00,
2013-04-15 17:39:00,60.8,33.7,30.23,SE,130,6.0,13.0,36,0.00,CLR,,0.00,WeatherDisplay:10.37,2013-04-15 21:39:00,
2013-04-15 17:49:00,60.7,33.5,30.23,SE,130,7.0,11.0,36,0.00,CLR,,0.00,WeatherDisplay:10.37,2013-04-15 21:49:00,
2013-04-15 17:59:00,60.4,33.3,30.23,SE,139,7.0,13.0,36,0.00,CLR,,0.00,WeatherDisplay:10.37,2013-04-15 21:59:00,
2013-04-15 18:09:00,60.4,33.9,30.23,SE,137,8.0,13.0,37,0.00,CLR,,0.00,WeatherDisplay:10.37,2013-04-15 22:09:00,
2013-04-15 18:19:00,60.1,33.7,30.23,SE,140,8.0,13.0,37,0.00,CLR,,0.00,WeatherDisplay:10.37,2013-04-15 22:19:00,
2013-04-15 18:29:00,59.9,34.2,30.26,SE,144,7.0,13.0,38,0.00,CLR,,0.00,WeatherDisplay:10.37,2013-04-15 22:29:00,
2013-04-15 18:39:00,59.7,34.0,30.23,SSE,149,6.0,13.0,38,0.00,CLR,,0.00,WeatherDisplay:10.37,2013-04-15 22:39:00,
2013-04-15 18:49:00,59.7,34.7,30.23,SE,136,8.0,12.0,39,0.00,CLR,,0.00,WeatherDisplay:10.37,2013-04-15 22:49:00,
2013-04-15 18:59:00,59.5,34.5,30.23,SE,134,8.0,12.0,39,0.00,CLR,,0.00,WeatherDisplay:10.37,2013-04-15 22:59:00,
2013-04-15 19:09:00,59.4,34.4,30.23,SE,137,5.0,13.0,39,0.00,CLR,,0.00,WeatherDisplay:10.37,2013-04-15 23:09:00,
2013-04-15 19:19:00,59.0,34.7,30.23,SE,134,7.0,15.0,40,0.00,CLR,,0.00,WeatherDisplay:10.37,2013-04-15 23:19:00,
2013-04-15 19:29:00,58.8,34.5,30.26,SE,136,5.0,12.0,40,0.00,CLR,,0.00,WeatherDisplay:10.37,2013-04-15 23:29:00,
2013-04-15 19:39:00,58.6,34.4,30.26,SE,141,7.0,12.0,40,0.00,CLR,,0.00,WeatherDisplay:10.37,2013-04-15 23:39:00,
2013-04-15 19:49:00,58.5,34.2,30.26,SE,125,7.0,13.0,40,0.00,CLR,,0.00,WeatherDisplay:10.37,2013-04-15 23:49:00,
2013-04-15 19:59:00,58.3,34.0,30.26,SE,130,6.0,10.0,40,0.00,CLR,,0.00,WeatherDisplay:10.37,2013-04-15 23:59:00,
2013-04-15 20:09:00,58.2,34.0,30.26,SE,138,8.0,12.0,40,0.00,CLR,,0.00,WeatherDisplay:10.37,2013-04-16 00:09:00,
2013-04-15 20:19:00,58.1,33.9,30.26,SE,136,7.0,10.0,40,0.00,CLR,,0.00,WeatherDisplay:10.37,2013-04-16 00:19:00,
2013-04-15 20:29:00,57.9,33.7,30.26,SE,134,7.0,10.0,40,0.00,CLR,,0.00,WeatherDisplay:10.37,2013-04-16 00:29:00,
2013-04-15 20:39:00,57.9,33.7,30.26,SE,132,5.0,13.0,40,0.00,CLR,,0.00,WeatherDisplay:10.37,2013-04-16 00:39:00,
2013-04-15 20:49:00,57.7,33.6,30.26,SE,144,8.0,11.0,40,0.00,CLR,,0.00,WeatherDisplay:10.37,2013-04-16 00:49:00,
2013-04-15 20:59:00,57.7,33.6,30.26,SE,124,9.0,14.0,40,0.00,CLR,,0.00,WeatherDisplay:10.37,2013-04-16 00:59:00,
2013-04-15 21:09:00,57.6,33.4,30.26,SE,124,8.0,13.0,40,0.00,CLR,,0.00,WeatherDisplay:10.37,2013-04-16 01:09:00,
2013-04-15 21:19:00,57.4,33.2,30.26,SE,134,7.0,13.0,40,0.00,CLR,,0.00,WeatherDisplay:10.37,2013-04-16 01:19:00,
2013-04-15 21:29:00,57.4,33.2,30.29,SE,134,7.0,13.0,40,0.00,CLR,,0.00,WeatherDisplay:10.37,2013-04-16 01:29:00,
2013-04-15 21:39:00,57.2,33.7,30.26,SE,137,7.0,13.0,41,0.00,CLR,,0.00,WeatherDisplay:10.37,2013-04-16 01:39:00,
2013-04-15 21:49:00,57.2,33.7,30.26,SE,146,7.0,13.0,41,0.00,CLR,,0.00,WeatherDisplay:10.37,2013-04-16 01:49:00,
2013-04-15 21:59:00,57.2,33.7,30.29,SE,142,7.0,14.0,41,0.00,CLR,,0.00,WeatherDisplay:10.37,2013-04-16 01:59:00,
2013-04-15 22:09:00,57.2,33.7,30.29,SE,129,7.0,13.0,41,0.00,CLR,,0.00,WeatherDisplay:10.37,2013-04-16 02:09:00,
2013-04-15 22:19:00,57.0,33.5,30.29,SE,139,7.0,11.0,41,0.00,CLR,,0.00,WeatherDisplay:10.37,2013-04-16 02:19:00,
2013-04-15 22:29:00,56.8,33.4,30.29,SE,136,9.0,13.0,41,0.00,CLR,,0.00,WeatherDisplay:10.37,2013-04-16 02:29:00,
2013-04-15 22:39:00,57.0,32.9,30.29,SE,127,7.0,12.0,40,0.00,CLR,,0.00,WeatherDisplay:10.37,2013-04-16 02:39:00,
2013-04-15 22:49:00,57.2,32.4,30.29,SE,141,8.0,13.0,39,0.00,CLR,,0.00,WeatherDisplay:10.37,2013-04-16 02:49:00,
2013-04-15 22:59:00,57.2,31.8,30.26,SE,134,6.0,15.0,38,0.00,CLR,,0.00,WeatherDisplay:10.37,2013-04-16 02:59:00,
2013-04-15 23:09:00,57.2,31.8,30.29,SE,139,9.0,13.0,38,0.00,CLR,,0.00,WeatherDisplay:10.37,2013-04-16 03:09:00,
2013-04-15 23:19:00,57.2,31.8,30.29,SE,136,7.0,15.0,38,0.00,CLR,,0.00,WeatherDisplay:10.37,2013-04-16 03:19:00,
2013-04-15 23:29:00,57.0,31.6,30.29,SE,137,8.0,15.0,38,0.00,CLR,,0.00,WeatherDisplay:10.37,2013-04-16 03:29:00,
2013-04-15 23:39:00,57.0,31.6,30.29,SE,132,9.0,15.0,38,0.00,CLR,,0.00,WeatherDisplay:10.37,2013-04-16 03:39:00,
2013-04-15 23:49:00,56.8,31.5,30.29,SE,140,6.0,13.0,38,0.00,CLR,,0.00,WeatherDisplay:10.37,2013-04-16 03:49:00,
2013-04-15 23:59:00,56.8,31.5,30.29,SE,139,8.0,13.0,38,0.00,CLR,,0.00,WeatherDisplay:10.37,2013-04-16 03:59:00,